Location: Jetmore Oil Field
(38.1181°N, 99.9337°W)
Time: 20:32:18
(UTC+00:00)

COSMOS 2406 - Pass Details

Date: 17 February 2020
Orbit: 842 x 865 km, 71.0° (Epoch: 07 April)

Event Time Altitude Azimuth Distance (km) Brightness Sun altitude
Rises 00:35:13 0° 334° (NNW) 3,415 6.5 -3.9°
Reaches altitude 10° 00:37:41 10° 332° (NNW) 2,479 5.9 -4.4°
Maximum altitude 00:43:19 67° 251° (WSW) 920 3.7 -5.5°
Drops below altitude 10° 00:48:58 10° 170° (S) 2,479 5.7 -6.6°
Sets 00:51:25 0° 167° (SSE) 3,415 6.3 -7.1°
